Location: Newark
(43.6583°N, 1.6617°E)
Time: 04:01:47
(UTC+00:00)

Tiros 1 - Pass Details

Date: 30 August 2019
Orbit: 630 x 664 km, 48.4° (Epoch: 18 September)

Event Time Altitude Azimuth Distance (km) Brightness Sun altitude
Rises 01:01:35 0° 290° (WNW) 2,920 - -35.0°
Reaches altitude 10° 01:03:57 10° 295° (WNW) 2,013 - -34.9°
Maximum altitude 01:08:30 57° 14° (NNE) 747 - -34.6°
Drops below altitude 10° 01:13:06 10° 94° (E) 2,024 - -34.2°
Exits shadow 01:15:22 - 98° (E) 2,897 10.7 -34.1°
Sets 01:15:29 0° 98° (E) 2,937 10.7 -34.1°
